FW0019 Weather Reports


time (UTC)temp
F
wind
direction
speed
knots
gust
knots
rain 1hr
in
rain 24hr
in
rain mn
in
humidity
%
barometer
mb
20260510143053 54 288 4.3 5.2 0.00 0.00 0.00 56 878.1
20260510141545 52 279 4.3 5.2 0.00 0.00 0.00 60 877.9
20260510140041 49 289 4.3 6.1 0.00 0.00 0.00 62 877.9
20260510134543 47 285 5.2 6.1 0.00 0.00 0.00 71 877.8
20260510133040 46 271 4.3 6.1 0.00 0.00 0.00 72 877.7
20260510131539 43 289 3.5 5.2 0.00 0.00 0.00 68 877.7
20260510130037 42 302 2.6 4.3 0.00 0.00 0.00 62 877.6
20260510124535 42 298 3.5 5.2 0.00 0.00 0.00 65 877.5
20260510123032 43 296 2.6 4.3 0.00 0.00 0.00 71 877.5
20260510121531 43 302 2.6 4.3 0.00 0.00 0.00 67 877.5
20260510120033 43 291 2.6 4.3 0.00 0.00 0.00 57 877.4
20260510114530 43 291 2.6 4.3 0.00 0.00 0.00 61 877.5
20260510113027 43 296 1.7 4.3 0.00 0.00 0.00 63 877.4
20260510111525 44 305 2.6 4.3 0.00 0.00 0.00 61 877.5
20260510110022 44 300 2.6 3.5 0.00 0.00 0.00 63 877.4
20260510104520 45 302 2.6 4.3 0.00 0.00 0.00 61 877.4
20260510103019 45 277 0.9 3.5 0.00 0.00 0.00 56 877.3
20260510101518 45 284 2.6 4.3 0.00 0.00 0.00 65 877.4
20260510100014 45 296 2.6 4.3 0.00 0.00 0.00 60 877.5
20260510094517 46 296 1.7 2.6 0.00 0.00 0.00 57 877.5
20260510093011 46 296 0.9 4.3 0.00 0.00 0.00 58 877.4
20260510091509 47 296 0.9 3.5 0.00 0.00 0.00 56 877.4
20260510090013 46 296 0.0 2.6 0.00 0.00 0.00 43 877.5
20260510084505 46 296 3.5 5.2 0.00 0.00 0.00 62 877.6
20260510083003 47 292 0.9 5.2 0.00 0.00 0.00 49 877.6
20260510081558 48 300 2.6 4.3 0.00 0.00 0.00 58 877.8
20260510080101 48 275 0.0 3.5 0.00 0.00 0.00 60 877.8
20260510074553 49 294 0.0 0.0 0.00 0.00 0.00 53 877.9
20260510073050 49 294 0.0 0.9 0.00 0.00 0.00 50 877.9
20260510071554 50 294 0.0 1.7 0.00 0.00 0.00 44 877.9
20260510070044 50 294 0.0 0.9 0.00 0.00 0.00 39 877.9
20260510064544 51 294 0.9 2.6 0.00 0.00 0.00 52 878.1
20260510063045 51 294 0.0 0.0 0.00 0.00 0.00 34 877.9
20260510061549 50 294 0.0 0.0 0.00 0.00 0.00 50 877.9
20260510060042 50 294 0.0 0.0 0.00 0.00 0.00 42 878.0
20260510054547 50 294 0.0 0.0 0.00 0.00 0.00 42 878.1
20260510053041 50 294 0.0 0.0 0.00 0.00 0.00 46 878.1
20260510051540 51 49 0.0 0.0 0.00 0.00 0.00 62 878.1
20260510050037 51 49 0.0 0.0 0.00 0.00 0.00 44 878.0
20260510044536 52 49 0.0 0.0 0.00 0.00 0.00 40 878.0
20260510043033 52 49 0.0 0.0 0.00 0.00 0.00 44 878.0
20260510041531 53 49 0.0 0.0 0.00 0.00 0.00 52 877.9
20260510040034 53 49 0.0 0.0 0.00 0.00 0.00 37 877.8
20260510034533 54 49 0.0 0.0 0.00 0.00 0.00 43 877.8
20260510033031 54 49 0.0 0.0 0.00 0.00 0.00 42 877.7
20260510031541 56 49 0.0 1.7 0.00 0.00 0.00 51 877.3
20260510030029 58 49 0.0 0.0 0.00 0.00 0.00 53 877.1
20260510024540 59 49 0.9 3.5 0.00 0.00 0.00 59 877.1
20260510023028 62 93 0.0 4.3 0.00 0.00 0.00 62 877.0
20260510021527 64 107 2.6 4.3 0.00 0.00 0.00 63 876.9
20260510020026 65 78 2.6 7.8 0.00 0.00 0.00 62 876.9
20260510014525 66 139 4.3 10.4 0.00 0.00 0.00 61 876.9
20260510013025 67 105 7.8 13.0 0.00 0.00 0.00 59 876.9
20260510011534 68 175 7.0 13.0 0.00 0.00 0.00 57 876.9
20260510010022 69 125 7.8 11.3 0.00 0.00 0.00 55 877.0
20260510004523 70 159 7.0 13.0 0.00 0.00 0.00 55 876.9
20260510003046 71 114 7.8 14.8 0.00 0.00 0.00 53 877.0
20260510001523 72 123 7.8 15.6 0.00 0.00 0.00 52 876.9
20260510000021 73 121 7.8 13.9 0.00 0.00 0.00 50 876.9
20260509234527 73 132 7.8 14.8 0.00 0.00 0.00 50 876.9
20260509233022 73 109 8.7 13.0 0.00 0.00 0.00 48 877.0
20260509231528 73 148 9.6 15.6 0.00 0.00 0.00 47 877.0
20260509230028 74 133 8.7 14.8 0.00 0.00 0.00 48 877.1
20260509224518 74 153 7.0 13.9 0.00 0.00 0.00 46 877.3
20260509223015 75 142 8.7 16.5 0.00 0.00 0.00 45 877.3
20260509221514 75 169 8.7 15.6 0.00 0.00 0.00 40 877.4
20260509220013 76 140 7.8 14.8 0.00 0.00 0.00 39 877.7
20260509214513 76 135 9.6 14.8 0.00 0.00 0.00 35 877.8
20260509213013 76 154 7.8 14.8 0.00 0.00 0.00 37 877.8
20260509211512 76 141 9.6 13.9 0.00 0.00 0.00 37 877.9
20260509210015 76 140 7.8 13.0 0.00 0.00 0.00 37 878.1
20260509204511 77 125 8.7 14.8 0.00 0.00 0.00 35 878.2
20260509203014 76 138 8.7 13.9 0.00 0.00 0.00 36 878.2
20260509201511 76 178 8.7 13.9 0.00 0.00 0.00 33 878.3
20260509200009 76 169 8.7 13.9 0.00 0.00 0.00 34 878.4
20260509194512 76 136 7.8 13.0 0.00 0.00 0.00 36 878.4
20260509193009 76 123 7.0 13.0 0.00 0.00 0.00 32 878.4
20260509191507 77 144 6.1 13.0 0.00 0.00 0.00 35 878.5
20260509190008 76 175 7.0 12.2 0.00 0.00 0.00 34 878.5
20260509184502 75 177 5.2 10.4 0.00 0.00 0.00 35 878.6
20260509183139 74 140 7.0 11.3 0.00 0.00 0.00 34 878.7
20260509181615 74 125 6.1 10.4 0.00 0.00 0.00 33 878.7
20260509180058 73 104 6.1 8.7 0.00 0.00 0.00 37 878.7
20260509174555 72 136 6.1 10.4 0.00 0.00 0.00 25 878.7
20260509173100 72 119 6.1 8.7 0.00 0.00 0.00 28 878.6
20260509171548 70 105 5.2 8.7 0.00 0.00 0.00 34 878.5
20260509170046 70 105 5.2 7.8 0.00 0.00 0.00 37 878.4
20260509164544 69 110 4.3 8.7 0.00 0.00 0.00 40 878.4
20260509163041 68 127 3.5 8.7 0.00 0.00 0.00 42 878.3
20260509161539 67 137 6.1 10.4 0.00 0.00 0.00 47 878.3
20260509160039 67 140 6.1 9.6 0.00 0.00 0.00 43 878.2
20260509154536 67 109 4.3 7.8 0.00 0.00 0.00 44 878.0
20260509153033 65 138 3.5 6.1 0.00 0.00 0.00 46 878.0
20260509151529 64 130 3.5 7.0 0.00 0.00 0.00 48 878.0
20260509150026 63 107 5.2 7.8 0.00 0.00 0.00 46 878.0
20260509144534 62 121 2.6 4.3 0.00 0.00 0.00 50 877.9